Starlink 36167

operational
NORAD ID: 67011 Int'l Des: 2025-293 Owner: SPXS Country: US Constellation: starlink
LEOCIRCULAR

Über Starlink 36167

Beschreibung wird geladen...

Live-Position

3D-Globus wird geladen...

Nächste Überflüge

Höhenverlauf

Altitude vs Time

uPlot chart will show altitude changes over time

Zweizeiliger Elementsatz

1 67011C 25293J 25346.10604167 -.00361050 00000+0 -50628-3 0 3467
2 67011 69.9973 325.9205 0004359 270.2000 209.1297 16.05931341 12
Epoch: 12. Dez. 2025 • Age: 54 hours

Aktueller Status

Höhe 271.9 km
Geschwindigkeit 7.74 km/s
Subsatellitenpunkt -30.73°S, 130.03°E
Startdatum 10. Dez. 2025
Alter 3 days
Typ internet

Technische Details

Klassifizierung Payload
Masse 575.00 kg
Trockenmasse 530.00 kg
Gesamtmasse 575.00 kg
Länge 0.30 m
Durchmesser 4.10 m
Spannweite 29.00 m
Form Box + pan
Hersteller SPXS
Bus-Typ Starlink V2MO
Phasenstatus In Orbit
Besitzer/Staat SPXS/US

Große Konstellationen

Loading constellations...